Flag for U.S.A. Weather past 2 weeks in Baton Rouge, Louisiana, U.S.A.

Now
70 °F

Sunny.


Feels Like: 76 °F
Forecast: 61 / 83 °F
Wind: 5 mph from Southeast

Location: Baton Rouge Metropolitan - Ryan Field

Current Time: Apr 21, 2015 at 8:48:06 PM

Latest Report: Apr 21, 2015 at 7:53 PM


Visibility: 10 mi

Pressure: 29.98 "Hg

Humidity: 57%

Dew point: 54 °F

Location of Baton RougeLocation

Historic Weather in Baton Rouge — Graph

°F

Baton Rouge temperature yesterday

Maximum temperature yesterday: 73 °F (at 3:53 PM)
Minimum temperature yesterday: 61 °F (at 11:53 PM)
Average temperature yesterday: 68 °F

Past Weeks' High & Low Weather Summary

 TemperatureHumidityPressure
High87 °F (Apr 8, 1:53 PM)100% (Apr 7, 5:53 AM)30.13 "Hg (Apr 7, 5:53 AM)
Low54 °F (Apr 21, 6:53 AM)32% (Apr 21, 4:53 PM)29.73 "Hg (Apr 19, 6:53 PM)
Average72 °F82%29.98 "Hg
* Reported Apr 6 7:53 PM — Apr 21 7:53 PM, Baton Rouge, Weather by CustomWeather, © 2015

Note: Actual official high and low records may vary slightly from our data, if they occured in-between our weather recording intervals... More about our weather records

Advertising

Baton Rouge weather history for previous 24 hours

 ConditionsComfort  
Time TempWeatherWind HumidityBarometerVisibility
7:53 PM
Tue, Apr 21
70 °FSunny.5 mph57%29.98 "Hg10 mi
6:53 PM77 °FSunny.N/A42%29.97 "Hg10 mi
5:53 PM79 °FSunny.No wind34%29.96 "Hg10 mi
4:53 PM80 °FSunny.3 mph32%29.97 "Hg10 mi
3:53 PM78 °FSunny.3 mph35%29.97 "Hg10 mi
2:53 PM78 °FSunny.6 mph36%29.99 "Hg10 mi
1:53 PM76 °FSunny.8 mph36%30.02 "Hg10 mi
12:53 PM76 °FSunny.8 mph35%30.03 "Hg10 mi
11:53 AM73 °FSunny.12 mph37%30.04 "Hg10 mi
10:53 AM71 °FSunny.10 mph39%30.07 "Hg10 mi
9:53 AM68 °FSunny.10 mph45%30.08 "Hg10 mi
8:53 AM63 °FSunny.8 mph58%30.06 "Hg10 mi
7:53 AM59 °FSunny.7 mph72%30.04 "Hg10 mi
6:53 AM54 °FClear.3 mph86%30.02 "Hg10 mi
5:53 AM56 °FClear.No wind84%30.00 "Hg10 mi
4:53 AM57 °FClear.No wind83%29.98 "Hg10 mi
3:53 AM58 °FClear.No wind87%29.98 "Hg10 mi
2:53 AM56 °FClear.No wind93%29.97 "Hg10 mi
1:53 AM58 °FClear.5 mph90%29.98 "Hg10 mi
12:53 AM58 °FClear.No wind90%29.99 "Hg10 mi
11:53 PM
Mon, Apr 20
61 °FClear.No wind87%29.99 "Hg10 mi
10:53 PM62 °FClear.No wind83%29.98 "Hg10 mi
9:53 PM62 °FClear.No wind80%29.98 "Hg10 mi
8:53 PM63 °FClear.No wind78%29.96 "Hg10 mi
Weather by CustomWeather, © 2015

See weather overviewHow to use our weather pages